Theta_e
288 288 288 288 289 289 288 287 287 289 288 288 290 289 290 291 291 291 291 291 292 292 295 298 299 301 302 301 301 301 303 302 304 306 309 307 309 308
288 288 288 288 288 288 287 287 286 285 286 287 287 288 288 288 290 290 290 290 290 291 292 295 298 299 300 299 297 297 299 301 304 306 308 307 305 304
288 288 288 288 288 287 287 286 285 285 285 285 286 287 289 289 288 288 289 290 290 290 290 293 295 296 298 298 298 298 295 296 298 299 300 300 301 302
288 287 287 287 287 286 284 283 283 283 284 284 284 286 287 288 288 288 287 288 289 289 289 290 293 293 296 296 295 297 297 293 295 296 297 299 299 299
287 287 286 284 283 283 282 282 281 282 283 284 284 284 286 287 287 287 287 287 287 287 289 289 291 292 294 295 294 294 294 295 293 292 294 296 297 296
286 284 283 283 282 281 280 280 281 282 283 283 284 285 286 286 286 286 286 286 286 286 288 290 290 290 291 293 294 294 293 293 293 293 292 292 293 294
283 283 282 281 281 280 280 280 280 281 282 283 283 284 285 286 286 285 285 284 284 285 285 289 289 290 291 291 292 293 293 293 293 292 292 292 291 291
282 281 280 280 279 279 279 280 280 281 281 281 282 283 284 285 285 285 284 284 283 284 284 286 288 289 289 291 291 292 292 292 292 292 292 291 291 291
280 279 279 279 279 279 279 280 281 281 281 281 281 281 282 283 284 284 284 283 283 283 283 284 285 288 289 289 289 290 290 291 292 292 292 291 291 291
279 279 279 278 278 279 279 280 280 280 280 281 281 281 281 282 282 282 282 282 282 282 283 283 284 284 286 287 288 288 289 289 289 289 289 289 289 289
279 279 278 278 279 279 280 280 280 280 280 280 280 281 282 282 282 282 282 283 283 283 283 284 284 284 284 285 285 286 287 287 287 287 287 287 288 288
279 279 278 278 279 279 280 280 280 280 280 280 280 280 280 281 282 282 282 282 282 283 283 283 283 284 284 284 285 285 285 285 286 286 286 286 287 287
278 278 278 278 278 279 279 279 279 280 280 280 280 280 281 281 281 281 281 281 281 282 282 282 282 283 284 284 285 285 285 286 286 286 286 286 286 286
277 277 277 277 278 278 278 278 279 279 280 280 281 281 281 282 282 282 283 283 283 284 284 283 282 282 283 284 285 285 285 286 285 286 287 287 287 287
277 277 277 276 276 277 277 278 278 278 279 279 280 280 281 282 282 283 283 284 284 285 285 284 283 283 283 284 284 285 285 286 285 285 286 287 287 287
276 277 276 276 276 276 277 277 278 278 278 279 279 280 281 282 283 283 284 285 285 286 286 286 285 284 284 285 285 285 286 286 286 285 285 286 286 286
275 276 276 276 276 276 276 277 277 277 278 279 279 280 281 282 283 284 284 285 285 286 286 286 286 286 286 285 285 285 286 286 286 285 285 286 286 286
275 275 275 275 275 275 275 276 276 277 277 278 279 280 281 281 282 282 283 284 285 285 286 286 286 286 286 286 285 285 286 286 286 286 285 285 285 285
275 274 275 274 274 274 274 275 275 275 276 278 279 279 280 280 281 281 282 283 283 284 284 285 285 285 285 285 285 286 286 286 286 286 285 285 285 286
277 274 274 274 274 274 274 273 273 274 275 277 278 279 279 280 280 280 280 281 281 282 283 283 284 285 285 285 285 285 286 286 285 286 285 285 285 285
277 276 274 274 274 274 274 273 273 273 274 276 277 278 278 278 279 279 279 279 280 280 281 282 283 283 283 283 284 284 284 284 284 284 284 284 284 285
276 276 276 275 274 274 274 274 274 274 274 274 275 276 277 277 278 278 278 278 278 279 279 280 281 282 282 282 282 283 283 283 283 283 283 283 283 283
277 276 275 275 274 275 275 275 274 274 274 273 273 274 275 275 277 277 277 277 277 277 279 280 281 281 282 282 282 282 283 282 282 281 282 282 282 281
Wind_Speed
21 22 21 21 21 20 20 22 20 22 27 26 21 20 15 16 12 12 13 16 17 19 23 27 30 23 25 21 17 20 22 24 26 22 19 19 14 17
23 23 22 21 22 24 27 29 30 24 27 26 31 25 19 20 19 18 14 13 18 19 22 25 24 24 31 23 17 12 15 20 23 24 22 21 19 18
26 25 25 27 31 32 33 36 35 30 29 31 29 28 21 20 20 22 21 18 17 19 21 19 15 20 32 28 31 25 14 9 14 18 21 21 19 18
26 28 31 33 35 36 37 35 33 30 30 34 31 26 23 22 22 23 20 22 20 18 19 23 25 10 19 21 14 18 27 14 12 12 13 17 16 15
27 33 35 34 32 31 32 32 29 25 23 26 29 28 25 22 23 22 21 21 21 18 16 20 31 16 13 15 18 19 12 19 16 10 15 17 17 17
33 31 29 28 30 30 31 27 23 23 21 23 23 22 22 21 22 22 23 23 24 20 14 10 15 19 12 8 11 13 19 15 11 13 11 10 13 17
30 28 27 27 27 25 24 24 24 23 23 20 19 20 21 20 20 19 19 20 21 21 18 13 6 8 14 6 6 10 14 18 17 14 13 12 12 13
29 29 29 28 26 26 24 22 22 21 22 23 21 21 17 20 19 18 19 18 17 14 13 20 16 11 8 12 11 10 11 14 16 16 16 14 14 14
28 28 28 25 22 22 18 18 18 18 19 22 24 22 23 14 14 16 17 19 20 18 17 18 21 22 18 13 12 15 12 15 17 18 18 16 14 13
25 22 22 22 21 20 20 22 18 17 17 16 16 21 22 21 22 22 21 21 22 21 17 20 16 19 24 22 22 18 17 16 16 17 17 18 19 20
20 21 18 18 15 21 20 20 19 21 22 21 20 18 12 15 15 16 17 16 18 18 13 14 16 15 17 22 23 23 22 21 21 21 21 20 21 20
21 19 15 17 20 20 16 17 18 17 14 17 16 16 21 21 20 20 19 19 20 21 18 16 15 9 5 10 15 19 19 21 23 24 24 24 24 24
21 20 19 19 16 16 16 16 16 18 15 15 12 9 8 13 19 21 23 25 25 28 26 19 19 15 10 11 5 7 14 14 14 15 17 18 20 22
21 19 20 18 15 16 16 14 13 11 9 8 9 7 6 5 7 9 11 13 14 18 16 14 22 21 17 14 12 7 12 15 14 13 14 14 14 15
20 17 17 17 15 13 11 11 12 11 11 10 10 10 9 8 7 8 9 11 12 11 11 13 16 15 16 16 15 11 8 8 10 13 16 17 17 15
18 17 16 15 13 10 10 11 13 10 11 10 9 10 9 7 4 4 6 8 8 7 4 8 12 14 16 17 16 15 12 10 9 8 15 20 20 19
18 15 16 15 15 12 9 12 14 12 10 11 10 9 8 7 5 4 4 4 1 3 4 3 5 8 11 13 15 14 12 12 11 12 17 19 20 19
18 16 16 16 16 16 15 13 13 13 10 11 10 8 7 8 8 6 5 4 3 2 1 6 5 8 9 10 11 12 10 12 11 14 17 19 21 19
17 16 15 16 17 15 15 15 16 13 9 8 9 8 7 6 7 7 5 3 2 1 3 3 3 5 7 7 6 6 9 7 10 11 12 16 16 13
15 16 15 15 16 15 16 16 16 14 9 6 7 8 8 7 7 7 6 5 4 3 3 2 1 2 4 6 6 5 9 11 11 10 10 12 14 16
14 14 14 14 14 14 13 13 15 15 14 8 7 8 7 7 6 7 6 7 7 7 6 6 6 5 5 6 6 5 5 4 4 4 5 7 9 12
13 13 13 13 13 13 13 13 13 13 12 11 9 9 8 7 7 7 8 9 9 10 8 5 4 4 6 6 6 7 6 4 3 4 4 4 4 3
12 12 13 13 13 12 12 12 13 13 13 12 11 10 10 8 8 8 9 9 11 10 6 2 2 3 5 6 5 2 4 4 4 3 3 5 4 4
Wind_Direction
312 308 306 304 301 301 305 310 314 305 306 307 306 316 308 302 310 313 308 307 309 316 294 262 253 234 231 218 219 229 236 231 227 224 222 227 221 230
315 304 301 299 293 295 298 301 302 297 287 291 294 297 302 298 290 295 300 303 304 308 307 283 254 238 235 201 189 177 218 225 220 218 219 226 238 240
309 291 293 299 299 299 299 299 295 288 283 286 282 285 282 284 283 280 284 290 298 308 316 298 262 233 227 226 217 198 169 217 211 214 219 223 230 235
299 293 300 302 300 300 301 300 296 286 280 281 282 276 276 270 276 284 286 282 291 303 306 300 285 275 207 194 220 213 200 183 215 208 204 204 206 215
298 302 303 304 304 305 304 303 299 295 287 282 277 270 272 272 273 276 279 280 283 286 297 300 287 305 220 233 216 206 244 207 174 200 215 216 217 217
302 305 306 303 304 307 308 305 298 293 295 283 282 277 266 266 272 274 277 278 279 281 272 302 288 296 303 250 193 202 204 207 208 209 227 224 229 235
308 307 306 306 305 302 302 296 297 294 283 295 287 284 273 260 260 269 278 282 286 281 252 243 228 229 252 260 253 206 201 209 214 223 234 253 253 249
310 310 310 310 308 305 298 290 285 286 285 281 284 280 289 259 258 267 275 281 289 289 268 237 238 215 186 210 228 225 215 214 222 226 235 248 259 264
313 312 311 312 311 312 312 318 297 291 283 277 274 272 272 271 259 264 268 274 277 281 282 265 239 239 237 231 207 208 215 220 231 236 244 252 251 257
321 324 323 323 320 319 302 301 305 301 297 298 279 274 268 261 259 262 267 269 271 268 262 270 265 252 243 245 243 239 234 235 241 247 252 259 264 264
333 334 330 326 332 327 316 314 305 297 302 292 277 269 269 255 257 255 257 264 268 270 267 270 275 278 258 247 247 247 249 250 251 248 250 257 258 258
339 338 337 333 330 328 329 328 317 320 313 311 300 273 259 255 250 252 256 260 261 269 269 270 279 271 271 271 252 247 247 244 249 255 257 256 256 256
339 339 338 340 335 329 323 330 328 318 313 314 314 315 286 265 258 257 256 258 258 261 266 261 264 263 269 274 246 207 212 225 230 239 243 247 246 247
339 338 338 338 331 329 332 332 324 329 327 336 340 338 330 302 268 253 249 246 256 264 272 260 250 253 257 272 276 253 228 230 251 248 246 249 246 242
342 339 337 338 337 340 350 346 342 342 338 332 331 329 322 312 293 271 256 255 261 265 262 243 242 242 244 252 267 272 270 264 262 253 235 231 232 239
349 348 342 345 349 350 358 359 359 3 7 1 348 336 333 335 327 291 279 252 261 276 277 243 238 235 239 246 255 257 260 263 268 257 238 234 238 241
347 341 346 358 1 5 357 354 359 4 9 7 360 1 14 31 23 20 36 131 171 309 229 238 230 233 243 250 254 257 257 255 252 251 241 235 232 238
353 353 357 360 1 3 1 359 357 3 9 10 13 17 29 30 21 20 33 36 40 80 73 228 219 215 225 240 249 257 254 264 261 247 236 240 240 241
358 3 3 2 2 4 5 3 1 360 359 6 15 20 15 10 10 13 18 31 41 27 35 21 148 191 203 218 234 230 256 292 253 244 240 238 240 242
354 360 4 2 3 3 4 5 7 9 4 1 6 8 14 10 13 17 12 359 342 318 315 335 357 204 215 229 228 243 246 269 280 254 234 244 253 258
356 353 356 358 1 0 0 360 360 4 4 354 347 354 1 12 7 0 355 349 342 328 300 283 276 271 273 268 264 263 282 252 246 263 265 264 265 264
350 349 348 349 353 356 356 357 358 359 3 0 350 342 335 327 333 343 343 342 337 338 335 298 285 276 267 285 291 260 251 240 258 275 266 266 283 282
340 340 340 340 341 343 346 349 355 356 356 354 351 346 342 333 318 318 319 324 331 332 319 313 298 273 262 266 287 232 201 232 267 283 276 259 278 289